Location: Beverley
(50.2667°N, 107.9667°W)
Time: 03:17:35
(UTC+00:00)

VELOX 1 - Visible Passes

Search period start: 29 June 2022 00:00
Search period end: 09 July 2022 00:00
Orbit: 625 x 638 km, 98.4° (Epoch: 24 June)

Date Brightness Start Highest point End Pass type
(mag) Time Alt. Az. Time Alt. Az. Time Alt. Az.
29 Jun ? 10:15:34 10° ESE 10:18:45 20° ENE 10:21:57 10° NNE visible
02 Jul ? 09:44:26 10° ENE 09:45:35 11° NE 09:46:44 10° NE visible
03 Jul ? 10:03:32 10° E 10:06:11 16° ENE 10:08:50 10° NNE visible
07 Jul ? 09:51:44 10° ENE 09:53:35 12° NE 09:55:25 10° NNE visible
08 Jul ? 10:11:13 10° E 10:14:11 18° ENE 10:17:09 10° NNE visible
